MEA267 OLBA-LTFM

Flight info

Callsign MEA267
Flight time N/A
Altitude 38000
Route KAD UR219 KUKLA M31 DESPO DCT VOLBE DCT VESAR UL620 OKLAM UB545 KFK UM855 SISPI
Aircraft A320/M-SDE3FGHIRWY/LB1

Departure

Time N/A
Airport Beirut Rafic Hariri International Airport (OLBA)

Arrival

Time 2026-05-04 14:54
Airport İstanbul Airport (LTFM)
Time Latitude Longitude Altitude Speed Heading
2026-05-04 14:31 39.95131 29.86952 28133 ft 384 kts
2026-05-04 14:31 40.00384 29.86989 26799 ft 372 kts
2026-05-04 14:32 40.05553 29.86984 26179 ft 373 kts
2026-05-04 14:32 40.08142 29.86979 25838 ft 372 kts
2026-05-04 14:32 40.10729 29.86977 25496 ft 370 kts
2026-05-04 14:32 40.13301 29.86972 25160 ft 368 kts
2026-05-04 14:33 40.15855 29.86963 24822 ft 366 kts
2026-05-04 14:33 40.18400 29.86952 24484 ft 365 kts
2026-05-04 14:33 40.20942 29.86943 24154 ft 364 kts
2026-05-04 14:33 40.23473 29.86938 23979 ft 363 kts
2026-05-04 14:34 40.25982 29.86889 23523 ft 361 kts 358°
2026-05-04 14:34 40.28422 29.86077 22981 ft 366 kts 340°
2026-05-04 14:34 40.30561 29.84235 22457 ft 373 kts 322°
2026-05-04 14:34 40.32395 29.81830 21890 ft 373 kts 319°
2026-05-04 14:35 40.34171 29.79426 21374 ft 370 kts 319°
2026-05-04 14:35 40.35958 29.77003 20795 ft 369 kts 319°
2026-05-04 14:35 40.37732 29.74592 20312 ft 365 kts 319°
2026-05-04 14:35 40.39490 29.72196 19823 ft 362 kts 319°
2026-05-04 14:36 40.42026 29.68733 19064 ft 358 kts 319°
2026-05-04 14:36 40.44363 29.65542 18374 ft 355 kts 319°
2026-05-04 14:36 40.46071 29.63210 17833 ft 353 kts 319°
2026-05-04 14:36 40.48599 29.59751 17077 ft 347 kts 319°
2026-05-04 14:37 40.50258 29.57478 16573 ft 343 kts 319°
2026-05-04 14:37 40.51879 29.55255 16071 ft 339 kts 319°
2026-05-04 14:37 40.53505 29.53029 15579 ft 336 kts 319°
2026-05-04 14:37 40.55116 29.50826 15131 ft 332 kts 319°
2026-05-04 14:38 40.56709 29.48644 14706 ft 329 kts 319°
2026-05-04 14:38 40.58283 29.46480 14251 ft 325 kts 319°
2026-05-04 14:38 40.59835 29.44343 13837 ft 322 kts 319°
2026-05-04 14:38 40.61376 29.42222 13403 ft 319 kts 319°
2026-05-04 14:39 40.62904 29.40120 12957 ft 316 kts 319°
2026-05-04 14:39 40.64416 29.38036 12597 ft 311 kts 318°
2026-05-04 14:39 40.65900 29.35991 12143 ft 307 kts 318°
2026-05-04 14:40 40.69105 29.31569 11123 ft 304 kts 318°
2026-05-04 14:40 40.72006 29.27562 10307 ft 298 kts 318°
2026-05-04 14:40 40.74384 29.24259 10059 ft 279 kts 319°
2026-05-04 14:40 40.76541 29.21261 9752 ft 266 kts 320°
2026-05-04 14:41 40.77814 29.19497 9522 ft 266 kts 319°
2026-05-04 14:41 40.79095 29.17725 9106 ft 267 kts 319°
2026-05-04 14:41 40.81162 29.13701 8716 ft 265 kts 306°
2026-05-04 14:42 40.82974 29.09529 8444 ft 262 kts 306°
2026-05-04 14:42 40.83876 29.07445 8315 ft 261 kts 306°
2026-05-04 14:42 40.84775 29.05369 8179 ft 260 kts 306°
2026-05-04 14:43 40.85670 29.03302 8044 ft 259 kts 305°
2026-05-04 14:43 40.86564 29.01239 7884 ft 259 kts 305°
2026-05-04 14:43 40.87462 28.99164 7499 ft 260 kts 304°
2026-05-04 14:43 40.88349 28.97101 7146 ft 254 kts 304°
2026-05-04 14:44 40.89216 28.95082 6627 ft 251 kts 304°
2026-05-04 14:44 40.90065 28.93097 6246 ft 244 kts 304°
2026-05-04 14:44 40.90892 28.91168 5842 ft 238 kts 304°
2026-05-04 14:44 40.91686 28.89316 5463 ft 232 kts 304°
2026-05-04 14:45 40.92482 28.87463 5074 ft 225 kts 304°
2026-05-04 14:45 40.93230 28.85724 4700 ft 217 kts 304°
2026-05-04 14:45 40.93966 28.84010 4294 ft 211 kts 304°
2026-05-04 14:45 40.94681 28.82342 4015 ft 206 kts 305°
2026-05-04 14:46 40.95398 28.80673 4014 ft 209 kts 304°
2026-05-04 14:46 40.96117 28.79000 4011 ft 209 kts 305°
2026-05-04 14:46 40.96873 28.77368 4005 ft 205 kts 316°
2026-05-04 14:46 40.98016 28.76347 4007 ft 198 kts 345°
2026-05-04 14:47 40.99374 28.76168 4013 ft 197 kts 359°
2026-05-04 14:47 41.00747 28.76145 4008 ft 194 kts 359°
2026-05-04 14:47 41.02048 28.76123 4002 ft 181 kts 359°
2026-05-04 14:47 41.03275 28.76101 4032 ft 178 kts 359°
2026-05-04 14:48 41.04510 28.76079 4015 ft 177 kts 359°
2026-05-04 14:48 41.05743 28.76056 4010 ft 177 kts 359°
2026-05-04 14:48 41.06974 28.76034 4003 ft 177 kts 359°
2026-05-04 14:48 41.08169 28.76011 3870 ft 166 kts 359°
2026-05-04 14:49 41.09291 28.75990 3675 ft 158 kts 359°
2026-05-04 14:49 41.10024 28.75976 3561 ft 155 kts 359°
2026-05-04 14:49 41.11088 28.75956 3355 ft 155 kts 360°
2026-05-04 14:49 41.12169 28.75936 3139 ft 155 kts 360°
2026-05-04 14:50 41.13247 28.75915 2935 ft 155 kts 360°
2026-05-04 14:50 41.14330 28.75895 2721 ft 156 kts 360°
2026-05-04 14:50 41.15411 28.75874 2499 ft 152 kts
2026-05-04 14:50 41.16447 28.75854 2307 ft 147 kts
2026-05-04 14:51 41.17462 28.75836 2104 ft 140 kts 360°
2026-05-04 14:51 41.18396 28.75818 1913 ft 130 kts
2026-05-04 14:51 41.19288 28.75801 1745 ft 127 kts 359°
2026-05-04 14:51 41.20170 28.75785 1568 ft 126 kts 360°
2026-05-04 14:52 41.21042 28.75768 1399 ft 125 kts
2026-05-04 14:52 41.21915 28.75752 1214 ft 125 kts 360°
2026-05-04 14:52 41.22780 28.75737 1025 ft 124 kts 358°
2026-05-04 14:52 41.23642 28.75719 824 ft 124 kts 358°
2026-05-04 14:53 41.24508 28.75700 704 ft 124 kts 357°
2026-05-04 14:53 41.25374 28.75689 542 ft 125 kts 357°
2026-05-04 14:53 41.26240 28.75668 365 ft 124 kts 358°
2026-05-04 14:53 41.27039 28.75645 306 ft 104 kts 360°
2026-05-04 14:54 41.27593 28.75643 290 ft 59 kts 359°
2026-05-04 14:54 41.27934 28.75637 270 ft 33 kts 351°
2026-05-04 14:54 41.28091 28.75556 264 ft 17 kts 335°
2026-05-04 14:54 41.28166 28.75481 261 ft 12 kts 305°
2026-05-04 14:55 41.28147 28.75377 262 ft 14 kts 211°
2026-05-04 14:55 41.28064 28.75355 265 ft 11 kts 180°
2026-05-04 14:55 41.27993 28.75356 269 ft 10 kts 179°
2026-05-04 14:55 41.27930 28.75356 272 ft 8 kts 179°
2026-05-04 14:56 41.27868 28.75358 276 ft 10 kts 179°
2026-05-04 14:56 41.27785 28.75359 281 ft 15 kts 179°
2026-05-04 14:56 41.27659 28.75360 292 ft 21 kts 179°
2026-05-04 14:56 41.27485 28.75363 298 ft 29 kts 179°
2026-05-04 14:57 41.27257 28.75366 303 ft 37 kts 179°
2026-05-04 14:57 41.27042 28.75371 306 ft 27 kts 179°
2026-05-04 14:57 41.26910 28.75361 308 ft 10 kts 213°
2026-05-04 14:57 41.26891 28.75273 308 ft 12 kts 270°
2026-05-04 14:58 41.26890 28.75156 312 ft 12 kts 268°
2026-05-04 14:58 41.26888 28.75038 313 ft 14 kts 269°
2026-05-04 14:58 41.26874 28.74912 313 ft 12 kts 227°
2026-05-04 14:58 41.26821 28.74910 313 ft 7 kts 172°
2026-05-04 14:59 41.26800 28.74910 313 ft 2 kts 180°
2026-05-04 14:59 41.26789 28.74910 314 ft 0 kts 179°
2026-05-04 15:08 41.26790 28.74910 314 ft 0 kts 179°